Tracking 30923 objects as of 1-Jul-2025
HD Live streaming from Space Station
objects crossing your sky now

STARLINK-31941

Track STARLINK-31941 now!
10-day predictions
STARLINK-31941 is classified as:


NORAD ID: 59866
Int'l Code: 2024-098J
Perigee: 489.4 km
Apogee: 491.0 km
Inclination: 43.0 °
Period: 94.3 minutes
Semi major axis: 6861 km
RCS: Unknown
Launch date: May 24, 2024
Source: United States (US)
Launch site: AIR FORCE EASTERN TEST RANGE (AFETR)
Your satellite tracking list
Your tracking list is empty




NASA's NSSDC Master Catalog

Two Line Element Set (TLE):
1 59866U 24098J   25181.86384435  .00000212  00000-0  17217-4 0  9992
2 59866  42.9991 242.4248 0001224 269.1022  90.9690 15.27574938 62908
Source of the keplerian elements: AFSPC